Regional Weather Roundup
Issued by NWS

Home | Current Version | Previous Version | Graphics & Text | Print | Product List | Glossary On
Versions: 1 2 3 4 5 6 7 8 9 10 11 12 13 14 15 16 17 18 19 20 21 22 23 24 25 26 27 28 29 30 31 32 33 34 35 36 37 38 39 40 41 42 43 44 45 46 47 48 49 50
000
ASUS43 KFSD 171002
RWRSD

WEATHER ROUNDUP FOR SOUTH DAKOTA
NATIONAL WEATHER SERVICE SIOUX FALLS SD
500 AM CDT WED SEP 17 2014

NOTE: "FAIR" INDICATES FEW OR NO CLOUDS BELOW 12,000 FEET WITH NO
SIGNIFICANT WEATHER AND/OR OBSTRUCTIONS TO VISIBILITY.


SDZ001>005-009-010-012>017-171100-
NORTHWEST AND NORTH CENTRAL SOUTH DAKOTA

CITY           SKY/WX    TMP DP  RH WIND       PRES   REMARKS
FAITH            N/A     49  47  93 NE8       29.92S
MOBRIDGE       CLEAR     47  46  97 CALM      29.90R
$$

SDZ012>016-024>037-041>051-057-063-072>074-171100-
SOUTHWEST AND SOUTH CENTRAL SOUTH DAKOTA

CITY           SKY/WX    TMP DP  RH WIND       PRES   REMARKS
RAPID CTY ARPT CLEAR     57  41  55 NW10      29.94R
PIERRE         CLEAR     49  47  93 NE3       29.88F
CUSTER         MOCLDY    50  32  50 NW5       30.08F
ELLSWORTH AFB  CLEAR     53  42  65 NW7       29.93S
PHILIP         CLEAR     47  44  90 N5        29.90F
PINE RIDGE     PTCLDY    51  49  92 CALM      29.95F
WINNER         FAIR      54  52  93 S3        29.90S
$$

SDZ004>011-016>023-039-040-171100-
NORTHEAST SOUTH DAKOTA

CITY           SKY/WX    TMP DP  RH WIND       PRES   REMARKS
ABERDEEN       PTCLDY    42  42 100 CALM      29.91S
WATERTOWN      CLEAR     50  47  89 S7        29.91F
SISSETON         N/A     54  51  90 CALM      29.89S
$$

SDZ017-020-022-023-036>040-048>070-171100-
SOUTHEAST SOUTH DAKOTA

CITY           SKY/WX    TMP DP  RH WIND       PRES   REMARKS
SIOUX FALLS    PTCLDY    55  49  80 S3        29.92F
HURON          PTCLDY    50  49  96 VRB3      29.90S
CHAMBERLAIN    FOG       46  46 100 CALM      29.90R VSB 1/2
MITCHELL       CLEAR     49  48  97 SE3       29.90F
YANKTON        CLEAR     50  48  93 SE5       29.92S
$$

ABBREVIATIONS USED IN REMARKS
   TC - TEMPERATURE IN CELSIUS
  WCI - WIND CHILL INDEX
   HX - HEAT INDEX
  VSB - VISIBILITY



USA.gov is the U.S. government's official web portal to all federal, state and local government web resources and services.